Regional Weather Roundup
Issued by NWS

Home | Current Version | Previous Version | Graphics & Text | Print | Product List | Glossary On
Versions: 1 2 3 4 5 6 7 8 9 10 11 12 13 14 15 16 17 18 19 20 21 22 23 24 25 26 27 28 29 30 31 32 33 34 35 36 37 38 39 40 41 42 43 44 45 46 47 48 49 50
000
ASUS43 KIND 182309
RWRIN

WEATHER ROUNDUP FOR INDIANA
NATIONAL WEATHER SERVICE INDIANAPOLIS IN
700 PM EDT MON SEP 18 2017

NOTE: "FAIR" INDICATES FEW OR NO CLOUDS BELOW 12,000 FEET WITH NO
SIGNIFICANT WEATHER AND/OR OBSTRUCTIONS TO VISIBILITY.

* - STATION DOES NOT REPORT WEATHER SUCH AS PRECIPITATION OR FOG.

+ - STATION NOT QUALITY CONTROLLED BY THE NATIONAL WEATHER SERVICE.
    USE DATA WITH CAUTION...ESPECIALLY DEWPOINT AND RELATIVE
    HUMIDITY OBSERVATIONS.

INZ001>003-010>013-019-020-190000-
NORTHWEST INDIANA

CITY           SKY/WX    TMP DP  RH WIND       PRES   REMARKS
GARY /AIRPORT/ MOCLDY    70  59  68 NE7       30.02F
KNOX *+        CLOUDY    77  54  44 NE8       29.99F
LA PORTE +     PTCLDY    73  60  64 N8        30.01F
MICHIGAN CITY+ PTCLDY    66  59  77 N3        30.02S
MONTICELLO +   CLEAR     78  64  62 CALM      29.98S
RENSSELAER +   PTCLDY    79  55  44 NE5       29.98S
VALPARAISO     CLOUDY    73  59  61 NE6       30.00F

$$

LMZ046-743>745-190000-
SOUTHERN LAKE MICHIGAN

STATION/POSITION TIME  TEMP    WIND        PRES    WAVE
                       AIR SEA DIR/SP/G            HT
                 (UTC) (F)     (DEG/KT/KT) (MB)    (FT)
BURNS HARBOR     2240   68      50/ 12/ 13 1016.6F
MICHIGAN CITY    2230   66      30/ 10/ 10   N/A
5NW MICH CITY    2300   67 68   40/ 10/ 12   N/A     2

$$

INZ004-005-014>016-021>024-190000-
NORTH CENTRAL INDIANA

CITY           SKY/WX    TMP DP  RH WIND       PRES   REMARKS
ELKHART        PTCLDY    75  46  35 CALM      30.02S
GOSHEN         PTCLDY    76  56  49 CALM      30.01S
LOGANSPORT +   CLEAR     77  64  65 NE3       30.00F
PERU/GRISSOM   MOCLDY    77  67  71 NE6       29.99F
ROCHESTER +    PTCLDY    79  64  61 E5        30.00F
SOUTH BEND     PTCLDY    73  54  51 N5        30.02S
WARSAW +       PTCLDY    73  64  73 E3        30.02R

$$

INZ006>009-017-018-025>027-190000-
NORTHEAST INDIANA

CITY           SKY/WX    TMP DP  RH WIND       PRES   REMARKS
AUBURN +       CLEAR     75  63  64 NE3       30.03S
FORT WAYNE     MOCLDY    75  65  70 E6        30.02S
HUNTINGTON +   MOCLDY    75  67  75 CALM      30.01R
KENDALLVILLE + CLEAR     74  64  70 CALM      30.03S

$$

INZ028-029-035-036-043>045-051>053-190000-
WEST CENTRAL INDIANA

CITY           SKY/WX    TMP DP  RH WIND       PRES   REMARKS
CRAWFORDSVL +  MOCLDY    72  72 100 NE5       29.98
GREENCASTLE +  MOCLDY    77  68  73 CALM      29.99R
LAFAYETTE      CLEAR     77  68  73 NE7       29.97F
TERRE HAUTE    PTCLDY    78  68  71 CALM      29.97S

$$

INZ030>032-037>040-046>048-054>057-064-065-190000-
CENTRAL INDIANA

CITY           SKY/WX    TMP DP  RH WIND       PRES   REMARKS
CP ATTERBURY + PTCLDY    77  68  73 CALM      30.00S
COLUMBUS       CLEAR     77  66  69 SW6       29.99F
FISHERS *+     CLOUDY    75  72  88 CALM      29.99S
FRANKFORT +    MOCLDY    78  70  75 E7        30.01F
GREENWOOD *+   PTCLDY    82  71  71 S8        30.00R
INDIANAPOLIS   CLOUDY    78  68  71 S6        29.97S THUNDER
-EAGLE CREEK   MOCLDY    81  66  60 CALM      29.98S
KOKOMO +       MOCLDY    78  68  71 NE7       30.01S
MT COMFORT *+    N/A    N/A N/A N/A MISG        N/A
SHELBYVILLE    PTCLDY    80  66  62 S6        29.99S
ZIONSVILLE +     N/A     74  71  92 N3        30.00S

$$

INZ033-034-041-042-049-050-058-059-190000-
EAST CENTRAL INDIANA

CITY           SKY/WX    TMP DP  RH WIND       PRES   REMARKS
MUNCIE         CLOUDY    79  66  64 NE6       30.00S
RICHMOND +     PTCLDY    77  70  78 CALM      30.03S

$$

INZ060-061-067>069-081>083-085>088-190000-
SOUTHWEST INDIANA

CITY           SKY/WX    TMP DP  RH WIND       PRES   REMARKS
EVANSVILLE     CLOUDY    72  69  90 S7        29.98F
HUNTINGBURG +    N/A    N/A N/A N/A MISG        N/A
WASHINGTON +   CLOUDY    76  64  65 S8        29.97F

$$

INZ062-063-066-070>080-084-089>092-190000-
SOUTH CENTRAL AND SOUTHEAST INDIANA

CITY           SKY/WX    TMP DP  RH WIND       PRES   REMARKS
BEDFORD +      CLOUDY    77  66  69 S5        29.99
BLOOMINGTON    HVY RAIN  79  69  71 S13G20    30.00R
MADISON *+     CLOUDY    77  70  78 CALM      30.03S
NORTH VERNON + MOCLDY    75  68  78 S3        30.01
SEYMOUR +      PTCLDY    79  66  65 CALM      30.00R

$$





USA.gov is the U.S. government's official web portal to all federal, state and local government web resources and services.